Location: Newark
(39.1833°N, 3.3000°W)
Time: 00:08:36
(UTC+00:00)

Hubble Space Telescope - Visible Passes

Search period start: 23 October 2019 00:00
Search period end: 02 November 2019 00:00
Orbit: 536 x 540 km, 28.5° (Epoch: 21 October)

Date Brightness Start Highest point End Pass type
(mag) Time Alt. Az. Time Alt. Az. Time Alt. Az.
30 Oct 3.1 06:10:46 10° SW 06:13:33 17° S 06:16:19 10° SE visible
31 Oct 3.4 04:22:36 12° SSE 04:22:36 12° SSE 04:23:54 10° SE visible
31 Oct 3.0 06:00:01 10° SW 06:02:52 18° S 06:05:42 10° SE visible
01 Nov 3.5 04:12:47 12° SSE 04:12:47 12° SSE 04:13:43 10° SE visible
01 Nov 2.9 05:49:18 10° SW 05:52:10 18° S 05:55:03 10° SE visible
